Regional Weather Roundup
Issued by NWS

Home | Current Version | Previous Version | Text Only | Print | Product List | Glossary Off
Versions: 1 2 3 4 5 6 7 8 9 10 11 12 13 14 15 16 17 18 19 20 21 22 23 24 25 26 27 28 29 30 31 32 33 34 35 36 37 38 39 40 41 42 43 44 45 46 47 48 49 50

000
ASUS43 KLMK 072110
RWRKY
KENTUCKY REGIONAL WEATHER ROUNDUP
NATIONAL WEATHER SERVICE LOUISVILLE KY
500 PM EDT TUE JUL 07 2015

NOTE "FAIR" INDICATES FEW OR NO CLOUDS BELOW 12,000 FEET
WITH NO SIGNIFICANT WEATHER AND/OR OBSTRUCTIONS TO VISIBILITY.

KYZ001>023-026-027-061>063-070>075-072200-
WESTERN AND SOUTH CENTRAL KENTUCKY

CITY           SKY/WX    TMP DP  RH WIND       PRES   REMARKS
PADUCAH        HVY RAIN  74  71  91 W13G30    30.00R VSB 3/4
HENDERSON      CLOUDY    75  72  88 SW5       29.97S
OWENSBORO      LGT RAIN  76  74  93 SW6       29.99F
HOPKINSVILLE   CLOUDY    85  74  69 SW18G26   30.00S HX  92
BOWLING GREEN  CLOUDY    87  69  54 SW13      30.01F HX  91
GLASGOW        CLOUDY    84  70  62 SW9       30.02F
$$

KYZ024-025-028>034-038-045-046-053-072200-
NORTH CENTRAL KENTUCKY

CITY           SKY/WX    TMP DP  RH WIND       PRES   REMARKS
LOUISVILLE/SDF CLOUDY    75  72  90 SW8       29.99S
LOUISVILLE/LOU CLOUDY    75  72  90 S6        30.00S
FORT KNOX      CLOUDY    75  72  88 W6        30.00S
$$

KYZ035>037-039>044-047>052-055>060-089>105-072200-
NORTHEAST KENTUCKY

CITY           SKY/WX    TMP DP  RH WIND       PRES   REMARKS
LEXINGTON      LGT RAIN  68  66  93 W10       30.04R FOG
COVINGTON      CLOUDY    77  72  84 SW12G20   29.96S
FRANKFORT      LGT RAIN  71  68  90 SW9       30.01F FOG
$$

KYZ054-064>069-076>088-106>120-072200-
SOUTHEAST KENTUCKY

CITY           SKY/WX    TMP DP  RH WIND       PRES   REMARKS
JACKSON        CLOUDY    79  70  74 CALM      30.06F
LONDON         PTSUNNY   88  64  44 SW17G23   30.06F
SOMERSET       CLOUDY    84  68  58 SW13G23   30.06S
MIDDLESBORO    PTSUNNY   87  71  59 S8        30.08F HX  92
MONTICELLO     MOCLDY    87  72  61 SW10      30.08F HX  93
$$



USA.gov is the U.S. government's official web portal to all federal, state and local government web resources and services.